Weather Roundup
Issued by NWS Springfield, MO

Home | Current Version | Previous Version | Text Only | Print | Product List | Glossary On
Versions: 1 2 3 4 5 6 7 8 9 10 11 12 13 14 15 16 17 18 19 20 21 22 23 24 25 26 27 28 29 30 31 32 33 34 35 36 37 38 39 40 41 42 43 44 45 46 47 48 49 50
000
NZUS99 KSGF 300057
HRRSGF

HOURLY WEATHER
NATIONAL WEATHER SERVICE SPRINGFIELD MO
800 PM CDT MON MAY 29 2017

......SGF CWA......

CITY           SKY/WX    TMP DP  RH WIND       PRES   REMARKS
SPRINGFIELD    PTCLDY    76  59  55 N6        29.98S
JOPLIN         CLEAR     78  57  48 NW6       29.98S
WEST PLAINS    CLEAR     74  57  55 SW3       30.00R
ROLLA          CLEAR     72  55  55 W6        29.95S
BRANSON        CLEAR     77  55  47 W5        30.00R

......SURROUNDING SGF CWA......

CITY           SKY/WX    TMP DP  RH WIND       PRES   REMARKS
CHANUTE        CLEAR     79  49  34 MISG      29.98S
PARSONS        CLEAR     78  54  43 N3        29.98F
COFFEYVILLE    CLEAR     80  57  45 N7        29.97S
EMPORIA        CLEAR     76  51  41 NW7       29.99S
HARRISON AR    CLEAR     76  57  51 CALM      30.01R

......KANSAS AND MISSOURI......

CITY           SKY/WX    TMP DP  RH WIND       PRES   REMARKS
KANSAS CTY INT PTCLDY    75  49  39 W5        29.98S
SEDALIA        CLEAR     76  54  46 NW5       29.98R
ST JOSEPH      CLEAR     76  43  30 N9        29.98R
ST LOUIS       PTCLDY    76  62  62 NW5       29.93R
WICHITA        CLEAR     80  49  33 N13       30.00R
TOPEKA         CLEAR     77  49  37 NW5       29.98S
OLATHE         CLEAR     75  48  38 NW6       29.98F

......TENNESSEE......

CITY           SKY/WX    TMP DP  RH WIND       PRES   REMARKS
MEMPHIS        NOT AVBL
NASHVILLE      CLOUDY    74  62  66 S7        30.00R

......ARKANSAS.......

CITY           SKY/WX    TMP DP  RH WIND       PRES   REMARKS
FAYETTEVILLE   CLEAR     74  61  63 SW5       30.00R
FT SMITH       CLEAR     81  53  37 S5        29.98R
LITTLE ROCK    CLOUDY    76  60  57 S5        30.00R

......OKLAHOMA.......

CITY           SKY/WX    TMP DP  RH WIND       PRES   REMARKS
TULSA          PTCLDY    85  55  35 VRB5      29.94S
PONCA CITY     CLEAR     83  47  28 NW5       29.98R
MCALESTER      CLEAR     79  61  53 SE3       30.00R
OKLAHOMA CITY  PTCLDY    80  50  34 S6        29.98S

......IOWA............

CITY           SKY/WX    TMP DP  RH WIND       PRES   REMARKS
DES MOINES     NOT AVBL
QUAD CITIES    CLEAR     71  42  35 W12       29.88R

......ILLINOIS........

CITY           SKY/WX    TMP DP  RH WIND       PRES   REMARKS
QUINCY         NOT AVBL
CHICAGO        PTCLDY    71  43  36 W12       29.85R




USA.gov is the U.S. government's official web portal to all federal, state and local government web resources and services.